User: anonymous   Login
Location: Unspecified
(0.0000°N, 0.0000°E)
Time: 11:59:55
(UTC+00:00)
Language:

NOSS 3-2 (C) - Orbit

View from above orbital plane
View from above orbital plane
View from above satellite
View from above satellite

Ground track
Ground track

The orbit data is extracted from the following two-line orbital elements,

1 28097U 03054C   17279.11675832 0.00000000  00000-0  00000-0 0    00
2 28097  63.4180  33.5567 0319000 358.0943   1.9057 13.40739249    08
Epoch (UTC): 06 October 2017 02:48:07
Eccentricity: 0.0319000
inclination: 63.4180°
perigee height: 868 km
apogee height: 1345 km
right ascension of ascending node: 33.5567°
argument of perigee: 358.0943°
revolutions per day: 13.40739249
mean anomaly at epoch: 1.9057°
orbit number at epoch: 0

The dashed part of the orbit path shows where the satellite is in the earth's shadow,  

DLR